DAL2173 KFAT-KBOI

Flight info

Callsign DAL2173
Flight time N/A
Altitude 38000
Route YOSE3 NTELL FMG/N0428F390 PRNCS SADYL4
Aircraft A319/M-SDE3FGHIRWY/LB1

Departure

Time 2026-04-21 03:35
Airport Fresno Yosemite International Airport (KFAT)

Arrival

Time N/A
Airport Boise Air Terminal/Gowen Field (KBOI)
Time Latitude Longitude Altitude Speed Heading
2026-04-21 03:14 36.77148 -119.71922 330 ft 0 kts 126°
2026-04-21 03:27 36.77155 -119.71932 330 ft 2 kts 126°
2026-04-21 03:27 36.77164 -119.71948 330 ft 2 kts 126°
2026-04-21 03:28 36.77172 -119.71961 330 ft 0 kts 126°
2026-04-21 03:28 36.77178 -119.71973 331 ft 2 kts 105°
2026-04-21 03:28 36.77179 -119.71993 331 ft 2 kts 78°
2026-04-21 03:28 36.77173 -119.72010 330 ft 2 kts 50°
2026-04-21 03:29 36.77168 -119.72018 330 ft 1 kts 35°
2026-04-21 03:29 36.77163 -119.72021 330 ft 0 kts 34°
2026-04-21 03:31 36.77167 -119.72018 330 ft 1 kts 34°
2026-04-21 03:32 36.77189 -119.71998 331 ft 5 kts 34°
2026-04-21 03:32 36.77232 -119.71961 332 ft 9 kts 34°
2026-04-21 03:32 36.77287 -119.71906 333 ft 10 kts 54°
2026-04-21 03:32 36.77323 -119.71817 333 ft 13 kts 73°
2026-04-21 03:33 36.77286 -119.71708 334 ft 15 kts 127°
2026-04-21 03:33 36.77218 -119.71594 334 ft 17 kts 123°
2026-04-21 03:33 36.77143 -119.71457 333 ft 20 kts 125°
2026-04-21 03:33 36.77056 -119.71307 332 ft 21 kts 124°
2026-04-21 03:34 36.76977 -119.71154 333 ft 19 kts 97°
2026-04-21 03:34 36.77068 -119.71086 334 ft 18 kts 328°
2026-04-21 03:34 36.77181 -119.71278 334 ft 55 kts 305°
2026-04-21 03:34 36.77565 -119.71950 335 ft 130 kts 305°
2026-04-21 03:35 36.78200 -119.73016 546 ft 168 kts 303°
2026-04-21 03:35 36.78914 -119.74161 1306 ft 168 kts 304°
2026-04-21 03:35 36.79692 -119.75241 2060 ft 172 kts 309°
2026-04-21 03:35 36.80565 -119.76374 2681 ft 183 kts 310°
2026-04-21 03:36 36.81457 -119.77605 3252 ft 196 kts 311°
2026-04-21 03:36 36.82417 -119.78897 3790 ft 213 kts 312°
2026-04-21 03:36 36.83499 -119.80313 4339 ft 231 kts 313°
2026-04-21 03:36 36.84703 -119.81880 4845 ft 255 kts 311°
2026-04-21 03:37 36.85960 -119.83611 5568 ft 270 kts 311°
2026-04-21 03:37 36.87285 -119.85387 6187 ft 287 kts 312°
2026-04-21 03:37 36.88678 -119.87224 6982 ft 297 kts 313°
2026-04-21 03:37 36.90375 -119.88666 7900 ft 303 kts 341°
2026-04-21 03:38 36.92472 -119.88941 8858 ft 305 kts
2026-04-21 03:38 36.94584 -119.88712 9773 ft 311 kts
2026-04-21 03:38 36.96827 -119.88457 10603 ft 321 kts
2026-04-21 03:38 36.99224 -119.88207 11178 ft 339 kts
2026-04-21 03:39 37.01662 -119.87973 11952 ft 348 kts
2026-04-21 03:39 37.04257 -119.87737 12812 ft 354 kts
2026-04-21 03:39 37.06910 -119.87502 13620 ft 361 kts
2026-04-21 03:39 37.09627 -119.87264 14410 ft 367 kts
2026-04-21 03:40 37.12325 -119.87028 15152 ft 373 kts
2026-04-21 03:40 37.14998 -119.86800 15865 ft 379 kts
2026-04-21 03:40 37.17756 -119.86565 16562 ft 385 kts
2026-04-21 03:40 37.20552 -119.86325 17254 ft 391 kts
2026-04-21 03:41 37.23386 -119.86079 17932 ft 396 kts
2026-04-21 03:41 37.26248 -119.85833 18588 ft 402 kts
2026-04-21 03:41 37.29153 -119.85583 19274 ft 406 kts
2026-04-21 03:41 37.32066 -119.85332 19961 ft 410 kts
2026-04-21 03:42 37.35049 -119.85074 20619 ft 414 kts
2026-04-21 03:42 37.38048 -119.84815 21280 ft 418 kts
2026-04-21 03:42 37.41057 -119.84553 21901 ft 422 kts
2026-04-21 03:42 37.44115 -119.84287 22515 ft 426 kts
2026-04-21 03:43 37.47258 -119.84016 23124 ft 431 kts
2026-04-21 03:43 37.50432 -119.83740 23740 ft 435 kts
2026-04-21 03:43 37.53688 -119.83453 24378 ft 438 kts
2026-04-21 03:43 37.56934 -119.83172 25023 ft 440 kts
2026-04-21 03:44 37.60247 -119.82882 25653 ft 443 kts
2026-04-21 03:44 37.63543 -119.82596 26219 ft 446 kts
2026-04-21 03:44 37.66875 -119.82307 26797 ft 449 kts
2026-04-21 03:44 37.70148 -119.82021 27359 ft 451 kts
2026-04-21 03:45 37.73473 -119.81727 27886 ft 454 kts
2026-04-21 03:45 37.76713 -119.81445 28357 ft 457 kts
2026-04-21 03:45 37.80037 -119.81155 28868 ft 460 kts
2026-04-21 03:45 37.83344 -119.80868 29348 ft 462 kts
2026-04-21 03:46 37.86707 -119.80574 29811 ft 465 kts
2026-04-21 03:46 37.90128 -119.80272 30280 ft 467 kts
2026-04-21 03:46 37.93562 -119.79968 30710 ft 470 kts
2026-04-21 03:46 37.96989 -119.79666 31144 ft 472 kts
2026-04-21 03:47 38.00397 -119.79367 31683 ft 471 kts
2026-04-21 03:47 38.03817 -119.79063 32303 ft 468 kts
2026-04-21 03:47 38.07237 -119.78763 32882 ft 466 kts
2026-04-21 03:47 38.10650 -119.78462 33392 ft 465 kts
2026-04-21 03:48 38.14038 -119.78162 33835 ft 465 kts
2026-04-21 03:48 38.17482 -119.77860 34329 ft 464 kts
2026-04-21 03:48 38.20929 -119.77555 34872 ft 462 kts
2026-04-21 03:48 38.24391 -119.77247 35376 ft 460 kts
2026-04-21 03:49 38.27707 -119.76954 35762 ft 461 kts
2026-04-21 03:49 38.31059 -119.76656 36100 ft 462 kts
2026-04-21 03:49 38.34514 -119.76350 36403 ft 464 kts
2026-04-21 03:49 38.37960 -119.76042 36738 ft 465 kts
2026-04-21 03:50 38.41302 -119.75742 37018 ft 467 kts
2026-04-21 03:50 38.44569 -119.75451 37048 ft 468 kts
2026-04-21 03:50 38.51262 -119.74854 37054 ft 468 kts
2026-04-21 03:51 38.57951 -119.74256 37052 ft 468 kts
2026-04-21 03:51 38.64865 -119.73634 37046 ft 469 kts
2026-04-21 03:52 38.71790 -119.73012 37034 ft 469 kts
2026-04-21 03:52 38.78709 -119.72388 37037 ft 469 kts
2026-04-21 03:53 38.85534 -119.71771 37025 ft 469 kts
2026-04-21 03:53 38.92364 -119.71158 36998 ft 469 kts
2026-04-21 03:54 38.99274 -119.70530 36994 ft 469 kts
2026-04-21 03:54 39.05971 -119.69921 36994 ft 469 kts
2026-04-21 03:55 39.12871 -119.69295 36989 ft 470 kts
2026-04-21 03:55 39.19709 -119.68671 36994 ft 471 kts
2026-04-21 03:56 39.26563 -119.68046 37002 ft 470 kts
2026-04-21 03:56 39.33574 -119.67405 36994 ft 472 kts
2026-04-21 03:57 39.40568 -119.66763 36988 ft 473 kts
2026-04-21 03:57 39.47595 -119.65995 36984 ft 474 kts
2026-04-21 03:58 39.54439 -119.64156 36978 ft 476 kts 16°
2026-04-21 03:58 39.60991 -119.60997 36980 ft 476 kts 26°
2026-04-21 03:59 39.67112 -119.57264 36985 ft 476 kts 27°
2026-04-21 04:00 39.76658 -119.51411 36981 ft 476 kts 26°
2026-04-21 04:00 39.82915 -119.47598 36970 ft 477 kts 26°
2026-04-21 04:01 39.89109 -119.43826 36972 ft 477 kts 26°
2026-04-21 04:01 39.95274 -119.40070 36971 ft 479 kts 26°
2026-04-21 04:02 40.01437 -119.36301 36961 ft 479 kts 26°
2026-04-21 04:02 40.07511 -119.32583 36965 ft 479 kts 27°
2026-04-21 04:03 40.13557 -119.28873 36965 ft 479 kts 27°
2026-04-21 04:03 40.19579 -119.25169 36963 ft 479 kts 27°
2026-04-21 04:04 40.25728 -119.21381 36955 ft 479 kts 27°
2026-04-21 04:04 40.31872 -119.17593 36956 ft 478 kts 27°
2026-04-21 04:05 40.38034 -119.13781 36961 ft 478 kts 28°
2026-04-21 04:05 40.44041 -119.10055 36966 ft 477 kts 28°
2026-04-21 04:06 40.50034 -119.06334 36971 ft 477 kts 27°
2026-04-21 04:06 40.56011 -119.02615 36965 ft 477 kts 28°
2026-04-21 04:07 40.62024 -118.98862 36961 ft 477 kts 27°
2026-04-21 04:07 40.68004 -118.95128 36951 ft 476 kts 28°
2026-04-21 04:08 40.74006 -118.91373 36940 ft 476 kts 28°
2026-04-21 04:08 40.79964 -118.87637 36937 ft 476 kts 28°
2026-04-21 04:09 40.85919 -118.83892 36941 ft 476 kts 28°
2026-04-21 04:09 40.91871 -118.80143 36939 ft 475 kts 28°
2026-04-21 04:10 40.97852 -118.76369 36936 ft 475 kts 28°
2026-04-21 04:10 41.03784 -118.72620 36936 ft 475 kts 28°
2026-04-21 04:11 41.09752 -118.68838 36943 ft 475 kts 28°
2026-04-21 04:11 41.15688 -118.65068 36950 ft 475 kts 28°
2026-04-21 04:12 41.21847 -118.61150 36964 ft 475 kts 27°
2026-04-21 04:12 41.27808 -118.57352 36979 ft 475 kts 28°
2026-04-21 04:13 41.34013 -118.53389 36976 ft 474 kts 28°
2026-04-21 04:13 41.40267 -118.49384 36977 ft 475 kts 27°
2026-04-21 04:14 41.46469 -118.45403 36963 ft 475 kts 27°
2026-04-21 04:14 41.52846 -118.41305 36950 ft 475 kts 27°
2026-04-21 04:15 41.59160 -118.37237 36959 ft 474 kts 27°
2026-04-21 04:15 41.65308 -118.33270 36966 ft 474 kts 28°
2026-04-21 04:16 41.71276 -118.29407 36967 ft 474 kts 28°
2026-04-21 04:16 41.77296 -118.25500 36979 ft 473 kts 28°
2026-04-21 04:17 41.83385 -118.21544 37000 ft 474 kts 28°
2026-04-21 04:17 41.89463 -118.17586 37022 ft 474 kts 28°
2026-04-21 04:18 41.95588 -118.13588 37022 ft 474 kts 28°
2026-04-21 04:18 41.98820 -118.11478 36711 ft 473 kts 28°
2026-04-21 04:18 42.01983 -118.09408 36386 ft 470 kts 28°
2026-04-21 04:18 42.05157 -118.07330 36062 ft 467 kts 28°
2026-04-21 04:19 42.08145 -118.05371 35740 ft 465 kts 28°
2026-04-21 04:19 42.11097 -118.03431 35347 ft 465 kts 27°
2026-04-21 04:19 42.14056 -118.01485 34873 ft 466 kts 27°
2026-04-21 04:19 42.17102 -117.99480 34304 ft 467 kts 28°
2026-04-21 04:20 42.20217 -117.97427 33692 ft 467 kts 27°
2026-04-21 04:20 42.23324 -117.95377 33065 ft 468 kts 27°
2026-04-21 04:20 42.26407 -117.93342 32423 ft 468 kts 27°
2026-04-21 04:20 42.29507 -117.91293 31760 ft 468 kts 27°
2026-04-21 04:21 42.32600 -117.89245 31081 ft 468 kts 27°
2026-04-21 04:21 42.35674 -117.87207 30431 ft 468 kts 27°
2026-04-21 04:21 42.38747 -117.85171 29965 ft 462 kts 27°
2026-04-21 04:21 42.41749 -117.83106 29491 ft 457 kts 31°
2026-04-21 04:22 42.44532 -117.80519 29011 ft 450 kts 41°
2026-04-21 04:22 42.46894 -117.77443 28518 ft 443 kts 51°
2026-04-21 04:22 42.48956 -117.74111 28040 ft 439 kts 54°
2026-04-21 04:22 42.50896 -117.70826 27578 ft 435 kts 54°
2026-04-21 04:23 42.52926 -117.67381 27103 ft 431 kts 54°
2026-04-21 04:23 42.54799 -117.64230 26663 ft 428 kts 54°
2026-04-21 04:23 42.56688 -117.61069 26216 ft 425 kts 54°
2026-04-21 04:23 42.58544 -117.57975 25777 ft 422 kts 53°
2026-04-21 04:24 42.60446 -117.54808 25323 ft 419 kts 54°
2026-04-21 04:24 42.62268 -117.51777 24888 ft 417 kts 53°
2026-04-21 04:24 42.64130 -117.48678 24424 ft 415 kts 53°
2026-04-21 04:24 42.65955 -117.45633 23963 ft 413 kts 53°
2026-04-21 04:25 42.67766 -117.42612 23516 ft 411 kts 53°
2026-04-21 04:25 42.69590 -117.39567 23071 ft 409 kts 53°
2026-04-21 04:25 42.71413 -117.36519 22628 ft 406 kts 53°
2026-04-21 04:25 42.73193 -117.33542 22201 ft 404 kts 54°
2026-04-21 04:26 42.74976 -117.30552 21774 ft 402 kts 54°
2026-04-21 04:26 42.76809 -117.27475 21333 ft 399 kts 54°
2026-04-21 04:26 42.78576 -117.24509 20906 ft 397 kts 54°
2026-04-21 04:26 42.80303 -117.21590 20475 ft 394 kts 54°
2026-04-21 04:27 42.82028 -117.18662 20048 ft 392 kts 54°
2026-04-21 04:27 42.83742 -117.15754 19613 ft 390 kts 54°
2026-04-21 04:27 42.85433 -117.12879 19182 ft 388 kts 54°
2026-04-21 04:27 42.87226 -117.09827 18712 ft 386 kts 54°
2026-04-21 04:28 42.88930 -117.06924 18254 ft 385 kts 54°
2026-04-21 04:28 42.90608 -117.04061 17803 ft 384 kts 54°
2026-04-21 04:28 42.92284 -117.01199 17359 ft 382 kts 54°
2026-04-21 04:28 42.93928 -116.98392 16919 ft 381 kts 54°
2026-04-21 04:29 42.95569 -116.95589 16488 ft 379 kts 54°
2026-04-21 04:29 42.97219 -116.92763 16050 ft 377 kts 54°
2026-04-21 04:29 42.98850 -116.89971 15619 ft 375 kts 54°
2026-04-21 04:29 43.00456 -116.87215 15203 ft 372 kts 54°
2026-04-21 04:30 43.02078 -116.84428 14772 ft 370 kts 54°
2026-04-21 04:30 43.03666 -116.81699 14345 ft 367 kts 54°
2026-04-21 04:30 43.05250 -116.78990 13920 ft 364 kts 54°
2026-04-21 04:30 43.06900 -116.76203 13487 ft 360 kts 54°
2026-04-21 04:31 43.08542 -116.73433 13032 ft 357 kts 54°
2026-04-21 04:31 43.10146 -116.70720 12576 ft 353 kts 53°
2026-04-21 04:31 43.11752 -116.67999 12114 ft 350 kts 53°
2026-04-21 04:31 43.13358 -116.65271 11649 ft 346 kts 53°
2026-04-21 04:32 43.14952 -116.62566 11187 ft 343 kts 53°
2026-04-21 04:32 43.16463 -116.59993 10799 ft 337 kts 53°
2026-04-21 04:32 43.18117 -116.57529 10592 ft 326 kts 39°
2026-04-21 04:32 43.20228 -116.56014 10276 ft 321 kts 19°
2026-04-21 04:33 43.22435 -116.55130 9973 ft 315 kts 16°
2026-04-21 04:33 43.24624 -116.54319 9617 ft 311 kts 15°
2026-04-21 04:33 43.26747 -116.53519 9266 ft 307 kts 16°
2026-04-21 04:33 43.28938 -116.52672 8777 ft 307 kts 17°
2026-04-21 04:34 43.31100 -116.51819 8421 ft 302 kts 17°
2026-04-21 04:34 43.33204 -116.50981 8020 ft 300 kts 17°
2026-04-21 04:34 43.35321 -116.50134 7630 ft 297 kts 17°
2026-04-21 04:34 43.37397 -116.49302 7258 ft 294 kts 17°
2026-04-21 04:35 43.39468 -116.48473 6876 ft 291 kts 17°
2026-04-21 04:35 43.41530 -116.47646 6494 ft 288 kts 17°
2026-04-21 04:35 43.43543 -116.46838 6150 ft 284 kts 17°
2026-04-21 04:35 43.45498 -116.46053 6043 ft 271 kts 17°
2026-04-21 04:36 43.47306 -116.45326 6038 ft 255 kts 17°
2026-04-21 04:36 43.48991 -116.44649 6028 ft 240 kts 17°
2026-04-21 04:36 43.50586 -116.43800 6008 ft 225 kts 30°
2026-04-21 04:36 43.51909 -116.42638 5933 ft 214 kts 36°
2026-04-21 04:37 43.53137 -116.41455 5800 ft 206 kts 36°
2026-04-21 04:37 43.54326 -116.40302 5662 ft 199 kts 36°
2026-04-21 04:37 43.55476 -116.39197 5450 ft 197 kts 36°
2026-04-21 04:37 43.56638 -116.38085 5137 ft 199 kts 35°
2026-04-21 04:38 43.57780 -116.37000 4864 ft 200 kts 37°
2026-04-21 04:38 43.58750 -116.35674 4673 ft 189 kts 56°
2026-04-21 04:38 43.59285 -116.34116 4391 ft 175 kts 75°
2026-04-21 04:38 43.59450 -116.32533 4108 ft 162 kts 90°
2026-04-21 04:39 43.59305 -116.31049 3857 ft 149 kts 107°
2026-04-21 04:39 43.58939 -116.29799 3613 ft 138 kts 117°
2026-04-21 04:39 43.58513 -116.28633 3375 ft 135 kts 116°
2026-04-21 04:39 43.58117 -116.27470 3258 ft 135 kts 117°
2026-04-21 04:40 43.57706 -116.26301 3160 ft 135 kts 117°
2026-04-21 04:40 43.57301 -116.25128 3008 ft 135 kts 116°
2026-04-21 04:40 43.56903 -116.23960 2837 ft 134 kts 116°
2026-04-21 04:40 43.56556 -116.22955 2850 ft 92 kts 116°